Location: Kalberh�ni
(46.4610°N, 7.2453°E)
Time: 21:21:06
(UTC+00:00)

USA 229 - Pass Details

Date: 27 October 2021
Orbit: 946 x 1266 km, 63.4° (Epoch: 25 November)

Event Time Altitude Azimuth Distance (km) Brightness Sun altitude
Rises 18:51:42 0° 245° (WSW) 3,660 7.4 -26.0°
Reaches altitude 10° 18:54:21 10° 252° (WSW) 2,745 6.6 -26.5°
Maximum altitude 19:00:26 42° 323° (NW) 1,430 4.6 -27.5°
Enters shadow 19:05:03 19° 25° (NNE) 2,326 5.3 -28.3°
